Fort Knox, KY

3:37 PM EST on February 27, 2017 (GMT -0500)
Godman Army Air Field

Weather History for KFTK - October, 2012

Change the Weather History Date:

Monday, October 8, 2012

  Actual Average Record
Temperature  
Mean Temperature 48 °F -  
Max Temperature 57 °F 69 °F 90 °F (2007)
Min Temperature 39 °F 47 °F 28 °F (2000)
Degree Days  
Heating Degree Days 17    
Moisture  
Dew Point 36 °F    
Average Humidity 70    
Maximum Humidity 91    
Minimum Humidity 40    
Precipitation  
Precipitation 0.00 in - - ()
Sea Level Pressure  
Sea Level Pressure 30.19 in    
Wind  
Wind Speed 2 mph (ENE)    
Max Wind Speed 6 mph    
Max Gust Speed -    
Visibility 10 miles    
Events      
Averages and records for this station are not official NWS values.
T = Trace of Precipitation, MM = Missing Value Source: NWS Daily Summary

Daily Weather History Graph

Daily Weather History Graph

Search for Another Location

Airport or City:

Trip Planner

Search our weather history database for the weather conditions in past years. The results will help you decide how hot, cold, wet, or windy it might be!

Date:

Astronomy

Oct. 08, 2012 Rise Set
Actual Time 7:46 AM EDT 7:15 PM EDT
Civil Twilight 7:19 AM EDT 7:41 PM EDT
Nautical Twilight 6:49 AM EDT 8:12 PM EDT
Astronomical Twilight 6:18 AM EDT 8:42 PM EDT
Moon 12:32 AM EDT (10/8) 2:58 PM EDT (10/8)
Length of Visible Light 12h 21m
Length of Day
11h 29m
Waning Gibbous, 46% of the Moon is Illuminated
Oct 8
Waning Gibbous
Oct 15
New
Oct 21
First Quarter
Oct 29
Full
Nov 6
Last Quarter

Hourly Weather History & Observations

Time (EDT) Temp. Windchill Dew Point Humidity Pressure Visibility Wind Dir Wind Speed Gust Speed Precip Events Conditions
12:55 AM 39.6 °F - 36.5 °F 89% 30.20 in 10.0 mi Calm Calm - N/A   Overcast
1:55 AM 39.9 °F - 37.4 °F 91% 30.21 in 10.0 mi Calm Calm - N/A   Mostly Cloudy
2:55 AM 41.0 °F 39.0 °F 36.7 °F 85% 30.20 in 10.0 mi NNE 3.5 mph - N/A   Mostly Cloudy
3:55 AM 42.1 °F - 36.9 °F 82% 30.21 in 10.0 mi Calm Calm - N/A   Overcast
4:55 AM 41.0 °F - 37.8 °F 88% 30.21 in 10.0 mi Calm Calm - N/A   Mostly Cloudy
5:55 AM 41.4 °F 38.4 °F 36.0 °F 81% 30.21 in 10.0 mi North 4.6 mph - N/A   Mostly Cloudy
6:55 AM 41.2 °F 39.2 °F 37.0 °F 85% 30.21 in 6.0 mi NNE 3.5 mph - N/A   Overcast
7:55 AM 41.4 °F 39.4 °F 37.0 °F 85% 30.22 in 7.0 mi North 3.5 mph - N/A   Mostly Cloudy
8:55 AM 42.6 °F - 36.9 °F 80% 30.25 in 7.0 mi Calm Calm - N/A   Mostly Cloudy
9:55 AM 44.4 °F - 34.9 °F 69% 30.25 in 10.0 mi East 2.3 mph - N/A   Mostly Cloudy
10:55 AM 46.9 °F - 36.1 °F 66% 30.24 in 10.0 mi ENE 3.5 mph - N/A   Mostly Cloudy
11:55 AM - - - N/A% 30.24 in 10.0 mi ENE 4.6 mph - N/A   Mostly Cloudy
12:55 PM 54.1 °F - 34.7 °F 48% 30.23 in 10.0 mi SSE 4.6 mph - N/A   Mostly Cloudy
1:55 PM 54.5 °F - 34.3 °F 47% 30.20 in 10.0 mi Variable 3.5 mph - N/A   Scattered Clouds
2:55 PM 55.8 °F - 34.7 °F 45% 30.18 in 10.0 mi East 5.8 mph - N/A   Partly Cloudy
3:55 PM 57.7 °F - 34.7 °F 42% 30.16 in 10.0 mi Calm Calm - N/A   Partly Cloudy
4:55 PM 56.7 °F - 32.5 °F 40% 30.14 in 10.0 mi Calm Calm - N/A   Clear
5:55 PM 57.2 °F - 32.7 °F 40% 30.14 in 10.0 mi South 3.5 mph - N/A   Clear
6:55 PM 54.0 °F - 34.2 °F 47% 30.14 in 10.0 mi Calm Calm - N/A   Clear
7:55 PM 44.4 °F 42.9 °F 39.0 °F 81% 30.14 in 10.0 mi North 3.5 mph - N/A   Clear
8:55 PM 43.0 °F - 38.5 °F 84% 30.15 in 10.0 mi Calm Calm - N/A   Clear
9:55 PM 42.3 °F - 36.1 °F 79% 30.16 in 10.0 mi Calm Calm - N/A   Clear
10:55 PM 41.7 °F 39.8 °F 36.7 °F 82% 30.16 in 10.0 mi East 3.5 mph - N/A   Clear
11:55 PM 41.5 °F - 37.4 °F 85% 30.16 in 10.0 mi Calm Calm - N/A   Clear